Tracking 29892 objects as of 21-Nov-2024
HD Live streaming from Space Station
objects crossing your sky now

COSMOS 1275 DEB

Track COSMOS 1275 DEB now!
10-day predictions


NORAD ID: 39947
Int'l Code: 1981-053NP
Perigee: 930.0 km
Apogee: 1,102.3 km
Inclination: 83.0 °
Period: 105.3 minutes
Semi major axis: 7387 km
RCS: 0.0065 m2 (small)
Launch date: April 25, 1981
Source: Commonwealth of Independent States (former USSR) (CIS)
Launch site: PLESETSK MISSILE AND SPACE COMPLEX (PKMTR)

Note: This is SATELLITE DEBRIS
Your satellite tracking list
Your tracking list is empty




NASA's NSSDC Master Catalog

Two Line Element Set (TLE):
1 39947U 81053NH  24325.14608469  .00002082  00000-0  23455-2 0  9996
2 39947  83.0154  27.9603 0116651  24.8518   7.5641 13.67378176519658
Source of the keplerian elements: AFSPC